www.pogodaiklimat.ru
ПОГОДА в Франкфорте
Время
и дата
12:35 02.08
12:55 02.08
13:15 02.08
13:35 02.08
13:55 02.08
14:15 02.08
14:35 02.08
14:55 02.08
15:15 02.08
15:35 02.08
15:55 02.08
16:15 02.08
16:35 02.08
16:55 02.08
17:15 02.08
17:35 02.08
17:55 02.08
18:15 02.08
18:35 02.08
18:55 02.08
19:15 02.08
19:35 02.08
19:55 02.08
20:15 02.08
20:35 02.08
20:55 02.08
21:15 02.08
21:35 02.08
21:55 02.08
22:15 02.08
22:35 02.08
22:55 02.08
23:15 02.08
23:35 02.08
23:55 02.08
00:15 03.08
00:35 03.08
00:55 03.08
01:15 03.08
01:35 03.08
01:55 03.08
02:15 03.08
02:35 03.08
02:55 03.08
03:15 03.08
03:35 03.08
03:55 03.08
04:15 03.08
Ветер
(напр.,м/с)
Видим. Явления Облачность Т
(С)
Тd
(С)
f
(%)
Тe
(С)
Тes
(С)
Комфортность P
(гПа)
Po
(гПа)
Тmin
(С)
Tmax
(С)
R
(мм)
R24
(мм)
S
(см)
З 1 16 км ясно +21.2 +12.6 58 +23 +38 комфорт 998.1
З 1 16 км ясно +21.5 +13.5 60 +24 +38 комфорт 998.1 +12.0 +21.6
ЮЗ 1 16 км ясно +21.3 +13.7 62 +24 +39 комфорт 997.7
ЮЗ 1 16 км ясно +21.1 +14.0 64 +24 +38 комфорт 997.7
З 1 16 км ясно +21.1 +14.1 64 +24 +38 комфорт 997.4
З 1 16 км ясно +21.0 +14.1 65 +24 +38 комфорт 997.4
ЮЗ 1 16 км ясно +21.0 +14.5 66 +24 +38 комфорт 997.4
З 1 16 км ясно +21.5 +13.5 60 +24 +38 комфорт 997.1
З 2 16 км ясно +21.7 +13.4 59 +24 +33 комфорт 997.1
З 1 16 км ясно +21.6 +14.3 63 +25 +38 комфорт 997.1
З 1 16 км ясно +20.7 +15.0 70 +24 +35 комфорт 997.1
З 1 16 км ясно +20.6 +14.8 69 +24 +34 комфорт 996.7
ЮЗ 1 16 км ясно +20.9 +14.2 66 +24 +32 комфорт 996.7
ЮЗ 1 16 км ясно +20.5 +14.8 70 +24 +32 комфорт 996.4
З 1 16 км ясно +20.9 +15.8 73 +25 +30 комфорт 996.4
ЮЗ 2 16 км ясно +20.8 +15.9 74 +24 +28 комфорт 996.4
ЮЗ 1 16 км ясно +20.4 +15.6 74 +24 +30 комфорт 996.1
З 1 16 км ясно +20.2 +15.8 76 +23 +25 комфорт 996.1
З 1 16 км ясно +20.2 +16.0 77 +23 +25 комфорт 996.1
ЮЗ 1 16 км ясно +19.9 +16.1 79 +23 +26 комфорт 996.1 +19.9 +22.0
штиль 0 16 км ясно +19.6 +16.2 81 +22 +22 комфорт 996.1
штиль 0 16 км ясно +19.3 +16.0 81 +21 +22 комфорт 995.7
штиль 0 16 км ясно +19.1 +16.0 82 +20 +21 995.7
штиль 0 16 км ясно +18.3 +15.8 85 +19 +19 995.7
штиль 0 16 км ясно +17.8 +15.6 87 +18 +18 995.7
штиль 0 16 км ясно +17.0 +15.0 88 +17 +17 995.7
штиль 0 16 км ясно +16.5 +15.0 91 +16 +16 996.1
штиль 0 16 км ясно +16.1 +15.0 93 +16 +16 996.1
штиль 0 16 км ясно +15.8 +14.8 94 +16 +16 996.1
штиль 0 16 км ясно +15.3 +14.2 93 +15 +15 996.1
штиль 0 16 км ясно +15.5 +14.5 94 +15 +15 996.1
штиль 0 16 км ясно +15.4 +14.4 94 +15 +15 996.1
штиль 0 16 км ясно +15.5 +14.5 94 +15 +15 995.7
штиль 0 16 км ясно +14.7 +13.9 95 +14 +14 995.7
штиль 0 6 км дымка ясно +14.8 +14.0 95 +14 +14 995.7
штиль 0 16 км ясно +14.7 +13.8 94 +14 +14 995.7
штиль 0 16 км ясно +15.0 +14.2 95 +15 +15 995.7
штиль 0 16 км ясно +14.7 +14.0 96 +14 +14 995.7 +14.5 +19.8
штиль 0 16 км 5/0 2100 м
[Ac]
+14.6 +13.9 96 +14 +14 995.4
штиль 0 16 км 8/0 2100 м
[Ac]
+14.6 +13.8 95 +14 +14 995.4
штиль 0 16 км 10/0 2100 м
[Ac]
+15.3 +14.4 94 +15 +15 995.4
штиль 0 16 км 10/0 2100 м
[Ac]
+15.6 +14.7 94 +15 +15 995.1
штиль 0 16 км 10/0 2100 м
[Ac]
+17.8 +16.2 90 +18 +18 995.1
штиль 0 16 км 10/0 2100 м
[Ac]
+18.5 +16.5 88 +19 +19 995.1
штиль 0 16 км 10/0 2400 м
[Ac]
+18.5 +16.3 87 +19 +19 995.1
штиль 0 16 км 5/0 2400 м
[Ac]
+18.4 +16.2 87 +19 +19 995.1
штиль 0 16 км ясно +18.4 +16.2 87 +19 +19 995.1
штиль 0 16 км ясно +18.3 +16.2 88 +19 +19 995.1
Местоположение метеостанции Frankfort Dow Memorial Field Airport: широта 44.6250 долгота -86.2006 высота над уровнем моря 193 м.
В архиве по умолчанию представлена погода в Франкфорте за последние 1-2 суток. Обновление информации о фактической погоде в базе происходит ежечасно! Архивные данные за месяц целиком и за предыдущие месяцы Вы можете получить, выбрав интересующий диапазон дат из раскрывающегося списка и нажав кнопку "Ввод!".
Внимание! Архив погоды МЕТАР в базе сайта по станциям, не включенным в климатический монитор, хранится не более 60 дней. Нет смысла пытаться выбрать более раннюю дату.
*Определитесь, кто Вы:
Внимание! Время в таблицах - местное (без учета летнего времени). Для получения всемирного времени необходимо вычесть поправку, которая равна -5 ч.
Смотрите также архив погоды в соседних городах и на ближайших метеорологических станциях:
Партнеры нашего сайта:      
Пояснения к столбцам:
  • Ветер - указаны скорость ветра в м/с - средняя за 10 мин, порывы в срок и между сроками (в фигурных скобках) и направление, откуда дует ветер: С - северный,
  • СВ - северо-восточный, В - восточный, ЮВ - юго-восточный, Ю - южный, ЮЗ - юго-западный, З - западный, СЗ - северо-западный.
  • Видимость - горизонтальная дальность видимости в метрах или километрах. При видимости от 1 до 10 км при отсутствии осадков обычно наблюдается дымка, при ухудшении видимости до 1 км и менее - туман. В сухую погоду видимость может ухудшаться дымом, пылью или мглою.
  • Явления - указаны атмосферные явления, наблюдавшиеся в срок или в последний час перед сроком; фигурными скобками обозначены явления, наблюдавшиеся между сроками (за 1-3 часа до срока); квадратными скобками обозначены град или гололедные отложения с указанием их диаметра в мм.
  • Облачность - указаны через наклонную черту общая и нижняя облачность в баллах и высота нижней границы облаков в метрах; квадратными скобками обозначены формы облаков: Ci - перистые, Cs - перисто-слоистые, Cc - перисто-кучевые, Ac - высококучевые, As - высокослоистые, Sc - слоисто-кучевые, Ns - слоисто-дождевые, Cu - кучевые, Cb - кучево-дождевые. Подробнее классификацию облаков см. в Атласе облаков (PDF).
  • T - Температура воздуха - температура, измеренная на высоте 2 м над землей.
  • Td - Температура точки росы - температура, при понижении до которой содержащийся в воздухе водяной пар достигнет насыщения.
  • f - Относительная влажность воздуха - влажноcть воздуха, измеренная на высоте 2 м над землей.
  • Te - Эффективная температура - температура, которую ощущает одетый по сезону человек в тени. Характеристика душности погоды. При расчете учитывается влияние влажности воздуха и скорости ветра на теплоощущения человека.
  • Tes - Эффективная температура на солнце - температура, которую ощущает человек, с поправкой на солнечный нагрев. Характеристика знойности погоды. Зависит от высоты солнца над горизонтом, облачности и скорости ветра. Ночью, в пасмурную погоду, а также при ветре 12 м/с и более поправка равна нулю.
  • P - Атмосферное давление - приведенное к уровню моря атмосферное давление.
  • Po - Атмосферное давление - измеренное на уровне метеостанции атмосферное давление.
  • Tmin - Минимальная температура - минимум температуры воздуха на высоте 2 м над землей.
  • Tmax - Максимальная температура - максимум температуры воздуха на высоте 2 м над землей.
  • R - Количество осадков - Количество выпавших осадков за период времени, мм. При наведении курсора мыши на число - период времени, за который выпало указанное количество осадков.
  • R24 - Количество осадков - Количество выпавших осадков за 24 часа, мм.
  • S - Снежный покров - Высота снежного покрова, см. При наведении курсора мыши на число - состояние снежного покрова и степень покрытия местности в баллах.